[[{"header":{"parameterUnit":"m.s-1","parameterCategory":1,"la1":30.2991,"la2":30.254,"lo1":-89.0895,"lo2":-89.0444,"dy":0.0017,"dx":0.0017,"nx":28,"ny":28,"refTime":"2023-09-26T21:00:00:Z","depth":0,"parameterNumber":2,"parameterNumberName":"U-component_of_WINDS"},"data":[0,0,0,0,0,0,0,0,0,0,0,0,0,0,0,0,0,0,0,0,0,0,0,0,0,0,0,0,0,0,0,0,0,0,0,0,0,0,0,0,0,0,0,0,0,0,0,0,0,0,0,0,0,0,0,0,0,0,-0.4005,-0.4006,0,-0.4102,-0.4103,-0.4104,-0.4212,-0.4213,-0.4215,-0.4216,-0.4313,-0.4314,-0.4315,0,0,0,0,0,0,0,0,0,0,0,0,0,-0.3909,-0.391,-0.4004,-0.4006,-0.4007,-0.4102,-0.4103,-0.4105,-0.4211,-0.4213,-0.4215,-0.4217,-0.4313,-0.4314,-0.4316,0,0,0,0,0,0,0,0,0,0,0,0,0,-0.3972,-0.391,-0.4004,-0.4072,-0.4079,-0.4102,-0.4103,-0.4105,-0.4211,-0.4213,-0.4216,-0.4218,-0.4312,-0.4314,-0.4316,-0.4279,0,0,-0.4321,-0.4322,0,0,0,0,0,0,0,0,-0.3969,-0.3976,-0.4061,-0.4067,-0.4075,-0.4147,-0.4105,-0.4163,-0.421,-0.416,-0.4216,-0.4219,-0.4256,-0.4262,-0.4275,-0.4284,-0.4288,-0.4321,-0.4322,-0.4323,-0.4323,0,0,0,0,0,0,0,-0.3964,-0.3972,-0.4043,-0.4062,-0.407,-0.4096,-0.4108,-0.4117,-0.4194,-0.4165,-0.4173,-0.4183,-0.426,-0.4274,-0.4278,-0.4289,-0.4321,-0.4323,-0.4324,-0.4324,-0.4274,-0.4272,0,0,0,0,0,0,-0.395,-0.3968,-0.404,-0.4046,-0.4027,-0.4096,-0.4109,-0.4121,-0.4194,-0.4207,-0.4181,-0.4188,-0.4269,-0.4276,-0.4282,-0.4245,-0.4323,-0.4324,-0.4325,-0.4277,-0.4274,-0.4271,0,0,0,0,0,0,-0.3947,-0.3955,-0.4036,-0.4009,-0.4021,-0.4095,-0.4108,-0.4122,-0.4136,-0.4206,-0.422,-0.4181,-0.4272,-0.428,-0.428,-0.425,-0.4325,-0.4327,-0.4279,-0.4276,-0.4273,-0.4169,0,0,0,0,0,0,-0.3944,-0.3954,-0.3941,-0.4008,-0.4022,-0.4032,-0.4106,-0.4122,-0.4139,-0.4148,-0.421,-0.4222,-0.4274,-0.4277,-0.4281,-0.4253,-0.4328,-0.4282,-0.4278,-0.4274,-0.4175,-0.4162,-0.4151,0,0,0,0,0,-0.394,-0.3907,-0.394,-0.3948,-0.4008,-0.403,-0.4038,-0.4099,-0.4136,-0.4123,-0.4169,-0.422,-0.4253,-0.4276,-0.4282,-0.4254,-0.4285,-0.4279,-0.4274,-0.4181,-0.4165,-0.4152,0,0,0,0,0,0,-0.3833,-0.3917,-0.3954,-0.3942,-0.3978,-0.4048,-0.4034,-0.408,-0.4106,-0.4114,-0.4189,-0.4202,-0.4193,-0.4224,-0.4248,-0.4223,-0.4276,-0.4272,-0.4203,-0.4189,-0.4177,-0.4169,-0.4329,0,0,0,0,0,-0.3808,-0.3819,-0.3892,-0.3874,-0.389,-0.3959,-0.397,-0.4015,-0.4055,-0.4071,-0.4116,-0.4153,-0.4172,-0.4182,-0.4203,-0.4181,-0.4196,-0.4165,-0.4153,-0.4143,-0.4138,-0.4129,-0.4116,-0.4254,-0.4254,-0.4254,0,0,-0.3755,-0.3803,-0.3805,-0.3853,-0.3887,-0.3896,-0.3971,-0.3977,-0.3985,-0.4071,-0.4074,-0.4109,-0.4155,-0.4144,-0.4141,-0.4169,-0.4104,-0.4136,-0.4127,-0.4128,-0.4123,-0.4109,-0.4098,-0.425,-0.4251,-0.4252,0,0,-0.3665,-0.3703,-0.3692,-0.3724,-0.3775,-0.3821,-0.3818,-0.3882,-0.3908,-0.3913,-0.3978,-0.3988,-0.4019,-0.4049,-0.4068,-0.3992,-0.404,-0.3997,-0.3933,-0.3924,-0.3913,-0.3904,-0.3876,-0.3865,-0.3992,-0.3992,-0.3991,0,-0.3594,-0.3611,-0.368,-0.3683,-0.3702,-0.3783,-0.3773,-0.3801,-0.3854,-0.3865,-0.3897,-0.3938,-0.3974,-0.3972,-0.3953,-0.3966,-0.3965,-0.3989,-0.3909,-0.39,-0.3893,-0.3867,-0.3857,-0.3986,-0.3987,-0.3987,-0.3988,0,-0.3521,-0.3532,-0.3518,-0.3569,-0.3587,-0.3583,-0.3651,-0.366,-0.3704,-0.3747,-0.375,-0.3798,-0.383,-0.3833,-0.3875,-0.3837,-0.3853,-0.3895,-0.395,-0.3873,-0.385,-0.3841,-0.3978,-0.398,-0.3982,-0.3983,0,0,-0.3363,-0.3455,-0.3448,-0.3473,-0.3535,-0.3545,-0.3545,-0.3578,-0.3585,-0.362,-0.3621,-0.3647,-0.3687,-0.3709,-0.3756,-0.3748,-0.3684,-0.3792,-0.3794,-0.377,-0.3645,-0.3611,-0.3599,-0.3717,-0.3716,-0.3714,-0.3641,0,-0.3283,-0.3289,-0.3352,-0.3339,-0.3351,-0.3429,-0.3429,-0.3467,-0.3507,-0.3523,-0.3568,-0.3584,-0.3637,-0.365,-0.3646,-0.3692,-0.366,-0.3699,-0.3719,-0.3719,-0.3704,-0.3587,-0.3552,-0.348,-0.3633,-0.3631,-0.363,0,-0.319,-0.3221,-0.321,-0.3274,-0.3281,-0.328,-0.3316,-0.333,-0.3375,-0.3405,-0.343,-0.3484,-0.3489,-0.3541,-0.3549,-0.3574,-0.3586,-0.3611,-0.3609,-0.3612,-0.3669,-0.3586,-0.3459,-0.3447,-0.3617,-0.3618,-0.3619,0,-0.3075,-0.3114,-0.3113,-0.3132,-0.3207,-0.3204,-0.3235,-0.3283,-0.3299,-0.333,-0.3342,-0.3373,-0.3389,-0.3413,-0.3473,-0.3506,-0.3474,-0.3531,-0.3499,-0.3497,-0.3487,-0.3486,-0.3358,-0.3496,-0.3497,-0.3497,-0.3497,0,-0.2978,-0.2968,-0.3063,-0.3061,-0.3053,-0.3126,-0.3115,-0.3153,-0.3196,-0.3203,-0.3273,-0.3278,-0.3359,-0.3374,-0.3421,-0.3421,-0.3428,-0.3452,-0.3465,-0.3445,-0.3442,-0.3453,-0.3459,-0.3494,-0.3495,-0.3495,-0.3496,0,-0.2848,-0.2911,-0.2914,-0.2986,-0.3003,-0.2994,-0.3055,-0.3056,-0.3102,-0.3111,-0.3118,-0.3189,-0.3211,-0.3274,-0.3311,-0.3343,-0.3328,-0.3353,-0.3313,-0.3321,-0.3284,-0.3286,-0.3158,-0.3145,-0.3291,-0.329,-0.3289,0,-0.2781,-0.2776,-0.2847,-0.2858,-0.2886,-0.2902,-0.2919,-0.2991,-0.3007,-0.3059,-0.3054,-0.3082,-0.3107,-0.3138,-0.3193,-0.3222,-0.3247,-0.32,-0.3252,-0.3233,-0.3246,-0.3245,-0.3245,-0.3188,-0.3186,-0.3185,-0.3183,0,-0.2656,-0.2688,-0.2711,-0.2745,-0.2764,-0.2794,-0.2828,-0.2832,-0.2913,-0.2927,-0.295,-0.297,-0.3009,-0.3035,-0.3074,-0.3106,-0.3157,-0.3167,-0.3161,-0.314,-0.3117,-0.3129,-0.3281,-0.3169,-0.3171,-0.3172,-0.3172,-0.3173,-0.2555,-0.2554,-0.2604,-0.2628,-0.2661,-0.2692,-0.2697,-0.2745,-0.2766,-0.2803,-0.2845,-0.2864,-0.2911,-0.2968,-0.2997,-0.3012,-0.304,-0.3031,-0.3029,-0.3025,-0.3016,-0.3116,-0.302,-0.302,-0.3021,-0.3021,-0.3021,0,-0.2433,-0.247,-0.2491,-0.2537,-0.2555,-0.2605,-0.2645,-0.2657,-0.2673,-0.2713,-0.2737,-0.2764,-0.2791,-0.2849,-0.2881,-0.2882,-0.2907,-0.2888,-0.2888,-0.2895,-0.299,-0.2991,-0.2868,-0.2868,-0.2868,-0.2868,-0.2868,-0.2868,-0.2371,-0.2372,-0.241,-0.2429,-0.2466,-0.2486,-0.2504,-0.2533,-0.2566,-0.2593,-0.2616,-0.2654,-0.2702,-0.2738,-0.2765,-0.2781,-0.2789,-0.2762,-0.2786,-0.2873,-0.2888,-0.2902,-0.2904,-0.2764,-0.2764,-0.269,-0.269,-0.2689]},{"header":{"parameterUnit":"m.s-1","parameterCategory":1,"la1":30.2991,"la2":30.254,"lo1":-89.0895,"lo2":-89.0444,"dy":0.0017,"dx":0.0017,"nx":28,"ny":28,"refTime":"2023-09-26T21:00:00:Z","depth":0,"parameterNumber":3,"parameterNumberName":"V-component_of_WINDS"},"data":[0,0,0,0,0,0,0,0,0,0,0,0,0,0,0,0,0,0,0,0,0,0,0,0,0,0,0,0,0,0,0,0,0,0,0,0,0,0,0,0,0,0,0,0,0,0,0,0,0,0,0,0,0,0,0,0,0,0,0.5297,0.53,0,0.5598,0.5601,0.5605,0.5697,0.5695,0.5694,0.5692,0.6,0.6009,0.6019,0,0,0,0,0,0,0,0,0,0,0,0,0,0.48,0.4808,0.5297,0.5301,0.5304,0.5597,0.5602,0.5606,0.5697,0.5695,0.5693,0.5692,0.5997,0.6008,0.602,0,0,0,0,0,0,0,0,0,0,0,0,0,0.5049,0.4811,0.5296,0.5385,0.5396,0.5597,0.5602,0.5607,0.5697,0.5695,0.5693,0.5691,0.5993,0.6007,0.6021,0.6154,0,0,0.6065,0.6071,0,0,0,0,0,0,0,0,0.5035,0.5068,0.5368,0.538,0.5392,0.5608,0.5539,0.579,0.5698,0.5583,0.5692,0.569,0.5871,0.5895,0.5957,0.6169,0.6182,0.6066,0.6075,0.6081,0.6085,0,0,0,0,0,0,0,0.5018,0.5055,0.5416,0.5373,0.5387,0.541,0.5443,0.5587,0.5736,0.5593,0.56,0.5635,0.5877,0.5943,0.5965,0.6186,0.6066,0.6079,0.6087,0.6093,0.6521,0.6523,0,0,0,0,0,0,0.4985,0.504,0.5406,0.5425,0.5205,0.542,0.5457,0.5541,0.5735,0.5762,0.5636,0.5638,0.5919,0.5948,0.5976,0.6144,0.6081,0.6094,0.6103,0.6518,0.6521,0.6524,0,0,0,0,0,0,0.4974,0.5017,0.5394,0.5235,0.5284,0.5431,0.5524,0.5548,0.5613,0.5767,0.5794,0.5676,0.5919,0.5956,0.6109,0.6156,0.6101,0.6114,0.6515,0.6519,0.6523,0.6481,0,0,0,0,0,0,0.496,0.5013,0.5066,0.5235,0.5293,0.5523,0.5527,0.5555,0.5638,0.5643,0.5812,0.5838,0.592,0.6087,0.6123,0.6175,0.6125,0.6511,0.6517,0.6521,0.6479,0.6483,0.6487,0,0,0,0,0,0.4942,0.5042,0.5068,0.5112,0.5362,0.5526,0.5559,0.5651,0.5641,0.5695,0.5794,0.5832,0.6144,0.6102,0.6143,0.62,0.6509,0.6515,0.6521,0.6477,0.6483,0.6487,0,0,0,0,0,0,0.4875,0.5066,0.5097,0.5255,0.5373,0.5541,0.5612,0.5654,0.5778,0.5777,0.5886,0.5923,0.6068,0.6149,0.6099,0.6338,0.6328,0.6342,0.628,0.6286,0.629,0.6268,0.6137,0,0,0,0,0,0.4879,0.4996,0.5157,0.5281,0.5339,0.5465,0.554,0.56,0.5727,0.5778,0.5888,0.6009,0.6134,0.6214,0.6338,0.649,0.6528,0.6549,0.6553,0.6555,0.6568,0.6652,0.6663,0.6544,0.6544,0.6544,0,0,0.4888,0.5007,0.5075,0.5271,0.537,0.5488,0.5507,0.5632,0.5721,0.5797,0.5949,0.6032,0.6175,0.6327,0.64,0.6399,0.6608,0.6563,0.6564,0.6575,0.666,0.6671,0.6681,0.6549,0.6548,0.6547,0,0,0.4966,0.5067,0.5182,0.528,0.5429,0.5511,0.5538,0.5699,0.5758,0.5911,0.5971,0.6077,0.6291,0.6389,0.6467,0.6578,0.6617,0.6615,0.6636,0.6718,0.6727,0.6736,0.6775,0.6788,0.6626,0.6626,0.6626,0,0.4959,0.5141,0.5235,0.5357,0.5441,0.5514,0.563,0.5721,0.5902,0.5958,0.5954,0.6222,0.6323,0.6499,0.6526,0.6586,0.662,0.6597,0.6718,0.6728,0.6737,0.6776,0.679,0.6624,0.6625,0.6625,0.6625,0,0.5124,0.5248,0.5323,0.5495,0.5588,0.5706,0.5818,0.5899,0.595,0.6033,0.6187,0.631,0.6459,0.6505,0.6557,0.6688,0.6682,0.6697,0.6689,0.6746,0.6784,0.6799,0.6623,0.6623,0.6623,0.6624,0,0,0.5172,0.5393,0.5419,0.5497,0.5665,0.5763,0.5883,0.6029,0.6096,0.6217,0.632,0.6498,0.6511,0.66,0.6663,0.6734,0.6812,0.674,0.6744,0.6749,0.6963,0.6952,0.6967,0.6838,0.6841,0.6844,0.6951,0,0.5271,0.549,0.5577,0.5755,0.587,0.5939,0.6044,0.6157,0.6236,0.6345,0.6432,0.6556,0.6565,0.6618,0.6692,0.6787,0.6857,0.678,0.6935,0.6939,0.6899,0.6987,0.6977,0.7072,0.6966,0.6969,0.6971,0,0.5418,0.5539,0.5728,0.5879,0.5931,0.6024,0.6163,0.6266,0.6395,0.6448,0.6544,0.6602,0.6729,0.6711,0.6887,0.6833,0.6901,0.6956,0.6962,0.6982,0.6959,0.7009,0.7105,0.7119,0.6995,0.6993,0.6991,0,0.5433,0.5644,0.5784,0.5849,0.6029,0.6092,0.617,0.6297,0.6378,0.6499,0.6553,0.6686,0.676,0.6861,0.6953,0.6932,0.712,0.711,0.7167,0.7164,0.7205,0.7201,0.7313,0.7246,0.7246,0.7246,0.7245,0,0.5536,0.5649,0.5793,0.588,0.6007,0.6105,0.6228,0.631,0.6422,0.6524,0.6591,0.6686,0.6801,0.691,0.6982,0.7116,0.7148,0.7194,0.7212,0.7189,0.7183,0.7236,0.7232,0.725,0.7249,0.7248,0.7247,0,0.5577,0.5678,0.5835,0.5992,0.6033,0.612,0.6254,0.634,0.642,0.6549,0.6585,0.6711,0.6842,0.6943,0.7114,0.7162,0.7304,0.7323,0.7261,0.727,0.7321,0.7315,0.7472,0.7497,0.7411,0.7412,0.7413,0,0.5636,0.5725,0.589,0.5963,0.604,0.6158,0.624,0.6339,0.6422,0.6574,0.664,0.6776,0.689,0.7095,0.7202,0.7332,0.7355,0.7401,0.7375,0.7348,0.7356,0.735,0.7359,0.7404,0.7405,0.7405,0.7405,0,0.5731,0.5776,0.5893,0.6027,0.6123,0.6233,0.6345,0.64,0.6519,0.6608,0.6743,0.6831,0.7004,0.7137,0.7277,0.7356,0.7401,0.7412,0.7432,0.741,0.737,0.7393,0.727,0.7409,0.7408,0.7408,0.7408,0.7408,0.5784,0.5865,0.5994,0.6121,0.6214,0.6316,0.6403,0.6494,0.6608,0.6757,0.6808,0.6946,0.707,0.7263,0.7342,0.7451,0.7453,0.7482,0.7489,0.7495,0.7493,0.7351,0.7476,0.7476,0.7477,0.7477,0.7477,0,0.5883,0.5968,0.6084,0.6237,0.6336,0.6368,0.6492,0.6573,0.6694,0.6806,0.6916,0.7069,0.7198,0.7313,0.7446,0.7511,0.7534,0.7543,0.754,0.7557,0.7484,0.7453,0.7521,0.7521,0.7521,0.7521,0.7521,0.7521,0.5946,0.6085,0.6144,0.6328,0.6413,0.6549,0.6617,0.671,0.68,0.6968,0.7076,0.715,0.7263,0.7404,0.7523,0.7553,0.7599,0.7603,0.7638,0.7568,0.7562,0.7557,0.7529,0.7612,0.7612,0.7702,0.7703,0.7704]}]]